GFSNE_sfc_thetae_087.txt.gz
Theta_e
344 343 338 337 341 342 336 333 325 317 317 327 324 331 331 332 331 330 331 329 327 324 323 323 325 327 328 330 331 332 333 333 335 336 337 337 337 336
344 333 332 330 337 343 337 334 330 324 317 324 327 330 332 334 333 331 332 328 325 323 323 322 321 322 324 325 326 329 329 329 329 330 332 333 333 333
344 338 334 332 334 342 336 333 330 325 320 323 328 328 327 329 328 330 330 329 328 323 323 321 319 319 320 322 323 325 326 326 326 326 327 327 328 331
344 344 343 346 342 341 336 332 329 326 324 320 324 325 324 326 328 326 330 334 330 325 321 320 317 316 316 318 319 320 319 318 320 321 323 325 326 329
344 346 345 343 342 339 334 332 330 330 326 324 322 324 324 325 323 323 324 325 327 323 319 319 317 316 314 314 314 313 312 312 312 316 319 321 323 325
345 346 344 343 344 340 334 331 329 327 325 323 322 321 321 322 322 319 319 324 327 328 322 319 318 317 316 316 316 315 310 309 310 312 313 314 315 317
345 346 345 340 334 336 336 331 329 324 323 321 320 320 320 319 318 319 319 323 324 326 323 319 319 319 319 316 319 318 311 310 309 310 310 310 310 312
342 344 344 328 327 322 323 324 329 326 323 321 320 318 319 320 320 319 318 319 316 323 326 325 323 320 320 319 317 313 309 309 309 309 309 309 308 310
342 342 336 335 327 327 316 314 317 319 324 324 321 320 320 322 320 319 317 315 317 322 325 321 325 324 325 322 311 309 307 306 306 308 308 309 308 307
341 339 336 327 327 326 325 325 323 322 321 326 324 323 323 324 322 323 320 320 320 323 323 317 322 321 324 320 307 306 304 304 305 307 307 306 306 305
340 338 333 330 312 311 327 324 321 316 307 306 306 305 301 304 316 322 320 319 316 319 323 319 319 319 321 320 315 306 304 303 304 305 306 305 304 303
336 335 317 328 307 310 326 324 320 317 317 315 314 312 310 311 307 320 320 316 316 316 321 319 318 318 316 320 318 313 310 304 303 303 304 304 303 309
333 330 329 309 305 305 314 325 322 321 315 319 318 319 318 318 320 319 320 319 316 318 322 322 319 319 317 316 318 316 315 311 311 308 302 302 302 308
330 328 321 304 301 305 314 302 305 314 320 317 317 319 319 320 319 320 321 321 321 322 321 324 320 317 319 315 315 318 317 319 318 318 315 309 301 300
329 316 301 297 298 303 300 301 307 320 317 314 315 315 316 324 320 320 321 323 322 323 328 325 322 322 318 315 314 316 318 320 320 320 319 320 318 312
307 307 306 307 310 306 307 308 320 320 318 315 315 316 319 319 317 320 320 319 321 319 327 327 325 323 320 321 320 317 316 316 321 322 319 319 319 317
313 316 317 317 314 314 315 316 317 319 319 318 317 318 320 317 315 320 319 318 315 314 315 319 323 323 322 322 317 320 319 320 320 321 321 320 320 321
319 318 317 317 316 316 316 315 318 316 317 317 321 320 319 318 316 318 318 319 317 315 318 319 318 317 317 320 319 317 318 319 321 322 321 321 320 319
320 318 318 317 317 317 317 318 317 318 318 317 316 319 319 318 315 316 317 313 316 316 315 316 316 315 312 310 318 311 317 317 317 316 316 316 315 318
320 318 317 317 316 316 317 319 318 318 317 316 315 316 319 317 316 315 315 315 315 313 315 316 316 316 314 315 313 316 300 318 317 317 316 318 312 300
318 317 318 317 318 318 321 323 320 318 317 316 315 316 318 315 312 314 314 300 303 315 314 315 318 300 320 321 316 317 319 302 310 316 315 314 314 316
319 318 320 321 318 321 321 319 316 316 316 315 315 318 317 313 315 315 315 309 308 312 315 318 319 319 317 315 313 312 315 317 309 301 302 308 316 312
321 319 320 322 322 323 320 317 318 319 317 315 317 319 315 313 314 317 315 314 315 313 313 314 314 317 314 316 310 314 314 315 315 317 317 304 303 303

GFSNE_sfc_thetae_093.txt.gz
Theta_e
337 337 337 340 340 339 335 331 327 317 320 325 327 329 330 331 332 332 331 329 327 324 322 321 322 324 326 327 328 329 331 332 335 336 337 339 339 339
336 337 338 339 339 339 338 334 329 323 320 324 325 327 328 331 332 330 329 328 325 323 322 321 320 321 322 323 324 325 328 329 330 331 333 334 335 335
330 332 335 338 335 334 336 335 331 330 325 329 324 326 326 326 328 326 329 329 326 322 322 321 318 318 319 320 320 322 324 326 326 327 328 329 330 331
331 333 332 336 334 333 331 330 333 333 330 327 325 325 324 324 323 324 327 330 328 326 320 319 317 315 314 315 316 317 318 318 320 322 324 325 326 328
326 328 332 333 332 333 333 331 332 333 332 327 325 323 322 322 321 322 323 323 325 325 319 317 315 315 314 313 312 312 311 311 313 314 316 319 321 322
327 327 328 333 334 332 332 334 335 333 330 326 323 321 320 321 321 319 318 319 320 325 322 318 318 317 315 314 314 314 312 309 308 310 314 312 311 314
324 326 327 328 328 328 331 330 334 331 327 325 321 319 317 320 320 317 317 315 317 319 318 319 319 319 318 315 317 317 313 309 308 309 308 308 306 308
319 322 325 323 325 319 318 316 328 331 326 325 322 318 317 319 317 316 315 313 312 318 319 318 321 319 320 320 316 314 311 309 307 308 308 307 305 305
315 319 323 327 323 335 324 314 314 313 320 326 323 320 320 320 318 314 314 314 313 314 319 315 321 318 319 318 311 310 308 306 306 306 306 306 305 304
312 318 322 324 325 328 335 329 328 326 324 325 326 326 324 322 322 320 317 315 317 319 319 314 319 322 324 322 310 308 305 304 304 304 304 304 303 302
310 312 315 319 314 306 332 329 327 321 307 311 311 308 305 305 314 319 316 317 317 319 322 315 318 319 321 320 318 307 304 303 302 303 303 303 302 302
305 309 307 311 307 306 325 329 323 320 317 315 314 307 309 308 306 319 319 319 317 315 320 319 318 318 315 319 319 314 312 303 301 301 302 304 303 311
305 307 311 306 304 301 306 328 324 319 316 319 317 315 315 319 319 318 318 316 312 312 317 319 318 318 315 313 318 317 316 313 312 308 301 301 300 309
304 306 308 302 301 298 302 307 304 311 319 317 315 312 314 316 318 318 316 316 317 317 320 321 318 318 316 315 314 317 316 318 316 316 315 307 300 300
305 304 301 298 298 300 301 303 306 320 318 315 313 312 314 315 315 317 317 317 316 318 321 320 319 315 315 313 312 315 315 317 318 318 318 317 316 311
302 303 303 303 303 310 308 310 321 320 318 316 312 312 314 315 315 314 314 319 317 314 319 321 321 320 315 316 314 312 317 312 318 318 320 320 320 319
307 312 311 311 313 315 316 320 318 316 315 312 311 312 312 312 313 315 314 316 312 313 312 316 319 324 323 318 317 319 317 314 314 318 318 318 319 321
309 311 312 316 318 318 318 318 317 313 315 313 313 313 314 313 312 317 318 315 311 311 312 312 313 313 314 317 318 318 315 313 314 315 318 317 318 321
307 315 318 320 320 320 319 318 315 316 315 316 316 317 318 317 311 316 315 316 314 313 314 316 314 311 307 305 313 307 313 312 312 315 318 318 318 320
310 319 320 319 319 319 318 316 315 315 316 315 316 319 317 315 314 314 314 314 314 314 314 315 314 311 309 310 311 315 297 312 311 310 310 312 312 303
319 320 319 318 318 317 317 317 317 316 315 313 312 313 317 315 314 314 313 301 305 314 312 313 314 297 317 317 310 311 315 298 304 311 311 309 309 311
320 319 319 318 317 317 317 318 315 313 313 311 311 312 316 315 311 312 313 310 310 311 311 315 316 317 312 313 311 311 310 313 303 300 300 303 309 307
319 318 317 318 318 319 319 317 316 315 313 312 312 314 315 309 309 310 313 310 310 311 313 314 314 315 312 311 308 308 306 305 308 310 307 299 299 301

GFSNE_sfc_thetae_096.txt.gz
Theta_e
335 335 334 337 339 339 338 336 330 323 324 328 330 335 336 336 337 339 339 329 327 323 323 323 324 324 325 326 328 328 330 331 333 335 336 338 339 339
336 334 335 335 338 337 338 338 335 332 327 329 329 335 336 334 336 338 336 329 325 323 322 321 321 321 321 322 323 324 326 327 328 330 332 334 335 336
330 331 332 333 333 335 337 338 335 332 330 334 330 333 332 334 333 333 333 334 333 322 322 321 319 318 319 319 320 322 323 324 325 326 328 329 331 332
327 329 332 334 334 334 336 335 334 333 331 328 334 331 331 329 331 329 330 334 334 326 322 320 318 316 315 314 315 317 317 317 318 321 324 326 327 329
327 327 328 330 332 334 334 333 333 333 333 331 332 330 327 327 326 328 329 333 331 326 319 318 315 315 314 313 312 311 310 310 311 313 317 320 321 323
325 326 328 329 329 331 333 333 332 331 331 330 329 326 326 325 325 325 325 327 328 329 324 320 318 317 315 314 313 314 310 308 308 309 311 315 311 313
321 325 328 327 323 323 326 328 332 331 332 327 326 323 323 323 324 325 327 325 325 327 328 327 325 323 323 316 318 317 313 309 308 308 309 308 308 308
317 320 324 322 321 315 315 315 325 332 328 326 326 324 323 323 324 324 324 321 321 327 327 327 324 322 324 325 317 313 310 309 307 308 308 307 307 306
316 317 317 320 319 325 320 316 313 313 319 329 328 325 324 324 325 322 322 323 324 324 326 325 323 323 328 324 314 310 308 306 306 306 306 306 305 303
314 314 316 319 321 321 323 326 332 323 321 324 332 330 330 328 328 326 327 325 323 323 327 322 325 323 329 329 309 307 305 304 304 305 305 304 303 301
313 314 314 314 307 302 315 318 325 329 310 310 313 310 306 307 317 326 322 321 320 322 324 325 322 323 326 326 324 308 306 303 302 302 303 303 302 301
311 311 304 308 302 300 310 317 321 327 319 316 318 312 310 310 308 330 326 324 321 320 325 323 322 322 320 320 325 321 318 305 302 301 301 302 300 312
309 309 311 301 299 297 297 312 318 325 316 321 321 320 321 319 321 325 329 328 322 321 324 328 321 320 322 318 322 322 320 318 317 312 301 301 300 308
308 309 310 299 298 297 298 300 299 307 322 322 320 319 320 319 323 324 325 325 326 326 326 329 323 320 320 318 321 320 320 319 322 321 320 307 300 300
310 306 300 297 294 297 297 297 298 320 321 320 319 318 320 321 321 321 323 324 324 326 327 328 326 324 324 322 322 320 318 318 320 322 323 321 319 315
303 306 303 300 296 302 307 304 313 323 321 320 318 320 320 320 320 322 321 322 321 323 326 328 328 326 324 324 323 322 321 320 321 321 322 322 323 322
305 308 309 311 311 311 313 313 321 321 319 318 318 318 318 319 319 321 320 320 321 321 321 323 326 327 324 323 320 321 321 321 324 323 321 320 323 324
306 309 310 311 311 311 314 317 319 317 319 319 319 320 318 318 319 322 323 322 320 319 320 322 321 320 323 324 320 324 322 320 325 325 321 319 319 324
307 308 309 311 313 315 318 319 319 320 321 320 319 321 320 320 318 320 320 318 316 320 321 322 322 321 318 316 321 303 320 324 322 321 320 319 318 324
306 306 308 314 316 319 319 320 319 320 320 319 321 321 321 319 318 319 318 318 318 319 319 318 318 318 320 318 318 316 295 322 322 321 320 322 318 300
305 307 310 316 320 321 321 320 319 320 319 320 322 321 319 317 317 318 316 303 307 316 315 316 318 297 321 320 315 313 309 297 306 313 315 318 318 312
308 309 314 320 320 320 320 320 319 317 320 320 319 320 318 318 316 316 315 313 315 315 316 319 320 319 320 317 312 311 310 309 302 296 296 300 307 304
310 318 320 319 320 321 320 319 319 319 319 319 319 320 318 315 316 317 315 313 314 316 317 316 319 319 315 313 306 306 305 306 305 299 295 293 295 295

GFSNE_sfc_thetae_102.txt.gz
Theta_e
349 349 342 338 338 339 337 335 326 318 320 327 329 335 339 341 343 347 347 339 330 326 324 324 325 327 329 330 331 331 332 334 336 337 338 339 340 340
341 346 348 340 341 345 344 337 335 329 324 327 329 335 337 341 343 344 346 335 329 326 324 323 322 324 325 326 325 326 328 329 329 330 333 334 335 336
340 339 340 345 340 338 338 337 334 332 327 328 330 335 338 346 346 348 345 348 345 325 324 324 321 322 322 322 322 324 325 326 326 326 328 329 330 332
334 336 335 335 339 340 336 338 336 336 329 327 332 333 341 346 347 347 345 346 341 331 323 324 319 320 318 319 319 320 319 318 319 322 324 326 327 330
330 331 332 333 334 333 334 332 332 333 334 332 329 335 338 343 341 344 340 340 339 331 324 322 322 317 317 315 314 314 312 311 311 314 317 321 324 325
328 328 328 328 330 331 332 333 333 332 333 331 331 333 338 342 340 334 332 334 332 337 331 327 323 319 316 315 315 314 311 309 308 309 310 311 313 316
327 326 329 326 322 323 325 327 329 328 326 326 326 330 331 335 332 334 330 331 331 336 335 337 335 335 331 317 324 317 313 309 308 308 308 308 308 309
327 327 327 320 320 314 313 313 318 323 325 325 327 329 334 337 336 334 328 327 325 338 338 338 344 342 339 339 323 317 311 310 308 307 307 307 306 306
328 328 326 322 320 323 313 310 311 310 311 325 326 330 333 338 338 334 328 328 327 335 337 337 343 339 339 334 315 313 310 307 307 306 306 306 305 304
330 329 329 326 325 325 324 322 321 322 324 325 329 332 337 341 336 332 329 329 331 339 339 334 342 335 337 340 311 310 307 305 305 305 305 305 303 303
327 329 328 327 313 303 322 320 320 322 315 307 307 305 303 305 318 330 326 326 329 333 335 336 338 336 336 335 331 309 307 305 304 304 304 304 303 303
330 330 309 319 305 301 322 321 319 320 321 321 322 320 313 322 307 326 327 327 332 331 336 334 335 333 327 335 333 330 329 306 304 304 304 304 302 324
322 325 326 304 302 298 304 322 319 318 315 319 318 321 330 327 323 322 328 329 331 331 337 336 334 331 329 330 331 333 332 324 329 322 303 302 300 309
324 324 325 301 300 298 300 303 298 300 316 317 317 318 328 322 324 326 328 334 334 338 339 338 332 330 328 327 328 331 330 330 329 330 332 309 300 300
323 317 307 298 298 299 296 295 294 314 316 317 316 320 327 324 325 326 328 332 337 336 336 337 335 333 329 327 329 330 327 330 331 330 330 328 330 325
310 318 313 310 306 312 312 306 315 318 318 317 320 325 327 323 323 325 326 329 331 331 335 335 335 335 332 332 331 330 331 327 330 326 328 331 330 329
313 317 317 317 317 317 318 318 319 319 320 320 320 323 322 320 320 324 326 328 327 328 327 332 334 335 324 325 331 330 333 331 333 330 327 319 307 307
311 313 315 315 315 315 315 316 318 316 320 321 323 321 320 319 320 324 326 326 326 325 327 330 329 330 327 313 307 324 328 332 333 330 329 309 304 303
312 312 314 316 314 316 315 315 316 317 322 322 322 321 321 321 318 323 324 326 325 327 329 329 327 328 323 320 309 295 310 326 330 327 323 314 305 303
311 311 311 315 315 315 315 316 317 317 322 322 321 322 322 321 324 325 325 327 325 327 325 329 329 327 326 323 310 303 290 317 327 311 301 297 294 292
310 312 314 315 316 317 317 317 317 318 322 322 323 323 323 324 326 327 326 308 314 327 323 324 327 301 325 321 311 300 298 292 297 313 306 301 303 305
311 313 315 316 317 318 318 317 317 321 322 323 323 323 325 329 327 326 325 323 324 326 324 326 329 329 327 313 305 298 298 298 294 293 294 298 306 304
311 313 315 316 317 317 317 317 321 322 322 325 324 324 329 326 325 324 325 325 325 324 324 323 319 319 318 312 301 302 304 297 296 295 291 293 293 293

GFSNE_sfc_thetae_105.txt.gz
Theta_e
354 353 347 342 341 340 339 338 333 327 327 333 331 333 338 338 337 342 345 339 331 326 324 325 325 327 329 331 332 333 333 333 335 337 339 340 341 341
343 349 347 343 343 341 341 332 340 333 328 332 333 340 342 339 340 341 341 336 332 326 325 324 322 323 325 327 328 328 329 329 329 331 333 335 336 337
346 341 342 346 339 341 337 337 331 333 331 331 333 342 347 343 341 343 345 347 347 327 327 323 321 320 322 323 324 324 326 326 326 327 328 329 331 333
335 339 338 336 344 344 340 344 338 339 332 332 335 334 338 342 343 346 344 344 344 335 327 322 320 319 319 319 320 320 320 320 321 323 324 325 327 329
332 333 336 338 340 337 338 334 332 335 334 331 330 334 336 339 341 346 345 346 345 334 322 320 320 318 319 318 317 316 314 312 312 314 316 320 323 325
332 333 332 334 335 337 336 337 335 332 332 330 329 330 332 338 336 336 337 340 337 338 332 330 321 319 318 316 316 316 312 310 309 309 310 311 312 315
331 327 333 328 322 325 327 334 335 329 324 323 324 326 327 329 333 338 333 335 339 335 337 332 329 330 330 318 324 318 313 310 309 308 308 307 307 309
329 329 329 325 321 315 315 313 317 325 325 319 318 321 329 331 336 336 334 332 328 336 333 331 335 336 337 337 324 319 312 310 309 308 307 306 306 307
333 332 329 324 323 323 313 311 311 309 311 325 322 324 327 331 336 335 333 333 331 333 331 328 336 336 341 335 318 315 309 308 307 307 306 306 305 304
334 334 333 333 330 326 325 325 325 325 323 322 326 330 333 335 332 334 333 332 334 333 331 325 336 337 341 332 313 311 307 306 305 305 305 305 304 303
333 335 333 332 317 305 324 324 323 325 316 308 307 305 301 302 308 329 327 327 325 326 330 328 333 332 337 341 329 310 308 306 305 305 305 305 303 303
333 334 311 325 309 302 327 326 323 325 323 324 325 320 311 321 304 324 330 324 324 322 329 329 334 337 331 342 338 327 326 306 304 304 304 304 303 324
325 327 330 306 301 299 306 330 325 325 319 323 322 321 323 325 330 331 332 328 321 322 328 332 335 336 332 333 334 334 334 320 326 318 303 304 302 309
325 326 328 303 303 299 303 306 299 304 319 318 317 318 319 320 329 330 331 327 327 326 330 331 332 335 332 331 329 334 333 332 331 331 327 311 301 301
325 319 307 301 302 302 300 302 296 315 316 316 317 319 321 322 331 328 329 327 327 330 332 333 336 336 332 328 331 330 327 330 330 332 330 329 328 325
312 320 316 312 310 316 312 305 316 319 317 317 319 320 322 327 328 326 321 323 324 326 332 335 338 337 334 334 334 331 333 326 331 330 326 312 312 310
316 321 323 321 320 320 321 321 320 319 317 319 319 320 320 326 323 324 322 321 320 325 327 331 333 323 314 326 330 331 331 331 334 329 315 308 304 305
313 317 318 321 320 320 319 319 321 316 320 319 321 321 322 324 317 320 321 319 322 324 328 330 328 325 321 312 304 319 331 330 331 319 314 306 303 301
316 316 318 319 321 321 320 318 318 320 323 321 322 323 321 322 315 319 321 322 322 323 328 329 329 327 323 318 307 293 312 327 320 311 314 312 304 304
312 316 316 318 319 319 318 318 319 320 319 322 323 323 323 322 320 318 321 322 324 328 329 330 330 328 326 319 310 299 289 312 318 305 299 295 294 291
309 313 317 316 316 317 318 317 319 319 319 323 323 323 323 322 320 320 324 308 314 327 326 327 324 304 321 317 310 304 299 292 301 313 304 302 303 301
309 312 314 314 314 315 317 317 318 318 322 323 323 324 322 323 321 323 326 327 326 326 322 324 327 327 325 319 310 305 299 298 293 294 294 301 309 304
309 310 312 313 316 318 318 318 319 320 323 324 324 324 322 321 323 325 327 328 329 327 325 322 325 320 315 310 304 306 303 300 297 295 294 293 293 292